TimePDT,TemperatureF,Dew PointF,Humidity,Sea Level PressureIn,VisibilityMPH,Wind Direction,Wind SpeedMPH,Gust SpeedMPH,PrecipitationIn,Events,Conditions,WindDirDegrees,DateUTC
12:53 AM,46.0,45.0,96,30.00,5.0,West,3.5,-,N/A,,Clear,270,2012-11-03 07:53:00
1:53 AM,46.0,45.0,96,30.01,5.0,Calm,Calm,-,N/A,,Overcast,0,2012-11-03 08:53:00
2:53 AM,46.0,45.0,96,30.01,5.0,Calm,Calm,-,N/A,,Overcast,0,2012-11-03 09:53:00
3:53 AM,45.0,45.0,100,30.00,3.0,ESE,3.5,-,N/A,,Mostly Cloudy,120,2012-11-03 10:53:00
4:25 AM,44.6,44.6,100,30.02,2.0,Calm,Calm,-,N/A,,Mostly Cloudy,0,2012-11-03 11:25:00
4:45 AM,42.8,42.8,100,30.02,1.8,East,5.8,-,N/A,,Mostly Cloudy,100,2012-11-03 11:45:00
4:53 AM,43.0,43.0,100,30.01,2.0,East,4.6,-,N/A,,Mostly Cloudy,100,2012-11-03 11:53:00
5:05 AM,44.6,44.6,100,30.03,3.0,East,4.6,-,N/A,,Overcast,100,2012-11-03 12:05:00
5:53 AM,46.0,46.0,100,30.03,4.0,ESE,4.6,-,N/A,,Overcast,110,2012-11-03 12:53:00
6:53 AM,46.9,46.0,97,30.04,4.0,Calm,Calm,-,N/A,,Overcast,0,2012-11-03 13:53:00
7:53 AM,46.9,46.9,100,30.06,6.0,Calm,Calm,-,N/A,,Overcast,0,2012-11-03 14:53:00
8:53 AM,48.0,46.9,96,30.08,7.0,SE,3.5,-,N/A,,Overcast,140,2012-11-03 15:53:00
9:53 AM,50.0,48.0,93,30.08,5.0,ENE,4.6,-,N/A,,Overcast,70,2012-11-03 16:53:00
10:53 AM,55.0,48.9,80,30.07,9.0,SE,3.5,-,N/A,,Scattered Clouds,130,2012-11-03 17:53:00
11:53 AM,61.0,48.9,64,30.07,10.0,Calm,Calm,-,N/A,,Overcast,0,2012-11-03 18:53:00
12:53 PM,61.0,50.0,67,30.07,10.0,WNW,10.4,-,N/A,,Overcast,290,2012-11-03 19:53:00
1:53 PM,55.9,51.1,84,30.09,5.0,NW,9.2,-,N/A,,Haze,310,2012-11-03 20:53:00
2:53 PM,55.0,50.0,83,30.09,4.0,NNW,3.5,-,N/A,,Haze,330,2012-11-03 21:53:00
3:53 PM,55.9,50.0,80,30.12,10.0,Calm,Calm,-,N/A,,Scattered Clouds,0,2012-11-03 22:53:00
4:53 PM,55.9,50.0,80,30.13,10.0,West,4.6,-,N/A,,Clear,260,2012-11-03 23:53:00
5:53 PM,55.9,48.0,75,30.14,9.0,SSW,4.6,-,N/A,,Clear,210,2012-11-04 00:53:00
6:53 PM,52.0,48.0,86,30.15,8.0,SE,5.8,-,N/A,,Scattered Clouds,140,2012-11-04 01:53:00
7:53 PM,53.1,48.0,83,30.16,9.0,SSE,5.8,-,N/A,,Clear,150,2012-11-04 02:53:00
8:53 PM,51.1,48.0,89,30.16,9.0,SSE,4.6,-,N/A,,Clear,150,2012-11-04 03:53:00
9:53 PM,52.0,48.0,86,30.17,9.0,SSE,5.8,-,N/A,,Clear,160,2012-11-04 04:53:00
10:53 PM,51.1,46.9,86,30.16,10.0,ESE,6.9,-,N/A,,Scattered Clouds,110,2012-11-04 05:53:00
11:53 PM,53.1,46.9,80,30.17,10.0,SSE,6.9,-,N/A,,Overcast,150,2012-11-04 06:53:00